CFG2P KJFK-KBOS

Flight info

Callsign CFG2P
Flight time 0h 40m
Altitude 21000
Route MERIT ROBUC3
Aircraft A339/H-SADE1E2E3GHIJ3J5M1P2RWXY/LB2D1

Departure

Time 2026-05-09 03:01
Airport John F. Kennedy International Airport (KJFK)

Arrival

Time 2026-05-09 03:41
Airport Boston Logan International Airport (KBOS)
Time Latitude Longitude Altitude Speed Heading
2026-05-09 02:25 40.64079 -73.79278 24 ft 0 kts 356°
2026-05-09 02:40 40.64078 -73.79278 24 ft 0 kts 356°
2026-05-09 02:42 40.64074 -73.79278 24 ft 2 kts 356°
2026-05-09 02:43 40.64061 -73.79277 24 ft 0 kts 356°
2026-05-09 02:43 40.64050 -73.79275 24 ft 2 kts 343°
2026-05-09 02:43 40.64036 -73.79266 24 ft 2 kts 319°
2026-05-09 02:43 40.64026 -73.79252 24 ft 2 kts 297°
2026-05-09 02:44 40.64021 -73.79233 24 ft 2 kts 276°
2026-05-09 02:44 40.64022 -73.79214 24 ft 2 kts 254°
2026-05-09 02:44 40.64028 -73.79195 24 ft 2 kts 232°
2026-05-09 02:44 40.64034 -73.79186 24 ft 0 kts 219°
2026-05-09 02:45 40.64037 -73.79183 24 ft 0 kts 219°
2026-05-09 02:52 40.64027 -73.79193 24 ft 3 kts 219°
2026-05-09 02:52 40.64004 -73.79218 24 ft 5 kts 219°
2026-05-09 02:53 40.63967 -73.79263 23 ft 8 kts 228°
2026-05-09 02:53 40.63911 -73.79298 22 ft 9 kts 163°
2026-05-09 02:53 40.63855 -73.79224 21 ft 12 kts 123°
2026-05-09 02:53 40.63807 -73.79118 21 ft 13 kts 120°
2026-05-09 02:54 40.63758 -73.79011 22 ft 14 kts 121°
2026-05-09 02:54 40.63703 -73.78894 21 ft 15 kts 121°
2026-05-09 02:54 40.63645 -73.78766 21 ft 16 kts 120°
2026-05-09 02:54 40.63584 -73.78629 21 ft 17 kts 120°
2026-05-09 02:55 40.63521 -73.78489 21 ft 17 kts 120°
2026-05-09 02:55 40.63458 -73.78348 21 ft 18 kts 121°
2026-05-09 02:55 40.63393 -73.78205 21 ft 18 kts 121°
2026-05-09 02:55 40.63340 -73.78077 21 ft 15 kts 111°
2026-05-09 02:56 40.63334 -73.77942 21 ft 15 kts 77°
2026-05-09 02:56 40.63316 -73.77821 21 ft 13 kts 119°
2026-05-09 02:56 40.63265 -73.77709 21 ft 14 kts 121°
2026-05-09 02:56 40.63208 -73.77588 21 ft 15 kts 121°
2026-05-09 02:57 40.63152 -73.77461 21 ft 16 kts 120°
2026-05-09 02:57 40.63092 -73.77328 21 ft 17 kts 121°
2026-05-09 02:57 40.63038 -73.77213 21 ft 12 kts 121°
2026-05-09 02:57 40.62989 -73.77108 21 ft 14 kts 122°
2026-05-09 02:58 40.62957 -73.77069 21 ft 5 kts 168°
2026-05-09 02:58 40.62915 -73.77094 21 ft 8 kts 215°
2026-05-09 02:58 40.62879 -73.77129 21 ft 3 kts 216°
2026-05-09 02:58 40.62852 -73.77156 21 ft 6 kts 219°
2026-05-09 02:59 40.62826 -73.77213 21 ft 8 kts 271°
2026-05-09 02:59 40.62843 -73.77271 21 ft 0 kts 299°
2026-05-09 03:00 40.62843 -73.77273 21 ft 1 kts 299°
2026-05-09 03:00 40.62934 -73.77473 21 ft 64 kts 300°
2026-05-09 03:00 40.63293 -73.78267 21 ft 135 kts 300°
2026-05-09 03:01 40.63860 -73.79523 193 ft 175 kts 300°
2026-05-09 03:01 40.64475 -73.80852 1022 ft 170 kts 299°
2026-05-09 03:01 40.65065 -73.82137 1919 ft 164 kts 306°
2026-05-09 03:01 40.66059 -73.82916 2431 ft 183 kts 349°
2026-05-09 03:02 40.67362 -73.82551 2829 ft 208 kts 30°
2026-05-09 03:02 40.68260 -73.80988 3208 ft 231 kts 74°
2026-05-09 03:02 40.68440 -73.78803 3665 ft 249 kts 85°
2026-05-09 03:02 40.68933 -73.76577 4133 ft 267 kts 56°
2026-05-09 03:03 40.70247 -73.74811 4702 ft 276 kts 27°
2026-05-09 03:03 40.71950 -73.73692 5508 ft 280 kts 20°
2026-05-09 03:03 40.73732 -73.72574 6358 ft 285 kts 21°
2026-05-09 03:03 40.75476 -73.71342 7178 ft 291 kts 24°
2026-05-09 03:04 40.77223 -73.69970 8069 ft 295 kts 26°
2026-05-09 03:04 40.78950 -73.68505 8930 ft 300 kts 28°
2026-05-09 03:04 40.80677 -73.66943 9808 ft 304 kts 28°
2026-05-09 03:04 40.82423 -73.65329 10577 ft 312 kts 28°
2026-05-09 03:05 40.84229 -73.63670 11078 ft 329 kts 28°
2026-05-09 03:05 40.86158 -73.61903 11531 ft 348 kts 28°
2026-05-09 03:05 40.88203 -73.60033 11961 ft 367 kts 28°
2026-05-09 03:05 40.90357 -73.58059 12423 ft 384 kts 28°
2026-05-09 03:06 40.92560 -73.56026 13194 ft 390 kts 28°
2026-05-09 03:06 40.94790 -73.53964 14063 ft 394 kts 27°
2026-05-09 03:06 40.97028 -73.51897 14911 ft 397 kts 27°
2026-05-09 03:06 40.99298 -73.49805 15691 ft 402 kts 27°
2026-05-09 03:07 41.01604 -73.47682 16502 ft 406 kts 27°
2026-05-09 03:07 41.03931 -73.45539 17233 ft 412 kts 27°
2026-05-09 03:07 41.06285 -73.43370 17986 ft 416 kts 27°
2026-05-09 03:07 41.08669 -73.41166 18737 ft 421 kts 27°
2026-05-09 03:08 41.11052 -73.38961 19452 ft 426 kts 27°
2026-05-09 03:08 41.13488 -73.36703 20179 ft 431 kts 27°
2026-05-09 03:08 41.15968 -73.34403 20735 ft 436 kts 27°
2026-05-09 03:08 41.18467 -73.32087 20981 ft 440 kts 27°
2026-05-09 03:09 41.20954 -73.29779 20994 ft 439 kts 27°
2026-05-09 03:09 41.23455 -73.27453 20999 ft 438 kts 27°
2026-05-09 03:09 41.25958 -73.25129 20994 ft 439 kts 27°
2026-05-09 03:09 41.28471 -73.22788 21000 ft 438 kts 27°
2026-05-09 03:10 41.30947 -73.20481 21003 ft 438 kts 27°
2026-05-09 03:10 41.33453 -73.18142 21000 ft 438 kts 27°
2026-05-09 03:10 41.35891 -73.15743 20995 ft 446 kts 34°
2026-05-09 03:10 41.37851 -73.12466 20986 ft 463 kts 55°
2026-05-09 03:11 41.38961 -73.08397 20992 ft 476 kts 75°
2026-05-09 03:11 41.39424 -73.04066 21013 ft 477 kts 80°
2026-05-09 03:11 41.39830 -72.99675 21008 ft 475 kts 80°
2026-05-09 03:11 41.40243 -72.95307 20997 ft 475 kts 79°
2026-05-09 03:12 41.40669 -72.91002 21012 ft 475 kts 79°
2026-05-09 03:12 41.41116 -72.86648 21007 ft 474 kts 79°
2026-05-09 03:12 41.41572 -72.82314 21002 ft 475 kts 79°
2026-05-09 03:12 41.42027 -72.77968 21001 ft 474 kts 78°
2026-05-09 03:13 41.42946 -72.69264 21003 ft 474 kts 79°
2026-05-09 03:13 41.43401 -72.64908 21006 ft 475 kts 78°
2026-05-09 03:13 41.43852 -72.60616 21006 ft 475 kts 79°
2026-05-09 03:14 41.44309 -72.56241 21009 ft 474 kts 78°
2026-05-09 03:14 41.44760 -72.51880 21001 ft 474 kts 78°
2026-05-09 03:14 41.45211 -72.47530 20998 ft 474 kts 78°
2026-05-09 03:14 41.45660 -72.43185 21004 ft 475 kts 78°
2026-05-09 03:15 41.46106 -72.38859 21004 ft 474 kts 78°
2026-05-09 03:15 41.46551 -72.34509 20996 ft 475 kts 79°
2026-05-09 03:15 41.46994 -72.30151 21005 ft 474 kts 79°
2026-05-09 03:15 41.47435 -72.25813 21008 ft 474 kts 78°
2026-05-09 03:16 41.48101 -72.21547 21007 ft 470 kts 70°
2026-05-09 03:16 41.49145 -72.17475 21010 ft 464 kts 62°
2026-05-09 03:16 41.50490 -72.13588 20783 ft 462 kts 58°
2026-05-09 03:16 41.51929 -72.09774 20250 ft 460 kts 57°
2026-05-09 03:17 41.53358 -72.06004 19751 ft 456 kts 58°
2026-05-09 03:17 41.54755 -72.02249 19309 ft 452 kts 58°
2026-05-09 03:17 41.56052 -71.98467 19021 ft 446 kts 63°
2026-05-09 03:17 41.57217 -71.94650 18896 ft 445 kts 63°
2026-05-09 03:18 41.58362 -71.90810 18254 ft 449 kts 63°
2026-05-09 03:18 41.59509 -71.86951 17598 ft 450 kts 64°
2026-05-09 03:18 41.60648 -71.83099 17062 ft 447 kts 64°
2026-05-09 03:18 41.61777 -71.79265 16579 ft 442 kts 64°
2026-05-09 03:19 41.62889 -71.75487 16196 ft 435 kts 64°
2026-05-09 03:19 41.63985 -71.71757 16052 ft 423 kts 64°
2026-05-09 03:19 41.65050 -71.68124 15952 ft 416 kts 63°
2026-05-09 03:19 41.66101 -71.64554 15863 ft 412 kts 63°
2026-05-09 03:20 41.67128 -71.61052 15767 ft 400 kts 63°
2026-05-09 03:20 41.68121 -71.57655 15672 ft 388 kts 63°
2026-05-09 03:20 41.69095 -71.54336 15410 ft 382 kts 63°
2026-05-09 03:20 41.70054 -71.51067 15168 ft 375 kts 63°
2026-05-09 03:21 41.71003 -71.47817 14836 ft 373 kts 63°
2026-05-09 03:21 41.71936 -71.44664 14550 ft 367 kts 62°
2026-05-09 03:21 41.73028 -71.41578 14275 ft 360 kts 56°
2026-05-09 03:21 41.74220 -71.38715 14002 ft 354 kts 54°
2026-05-09 03:22 41.75446 -71.35884 13749 ft 350 kts 53°
2026-05-09 03:22 41.76666 -71.33072 13466 ft 346 kts 54°
2026-05-09 03:22 41.77859 -71.30301 13148 ft 345 kts 54°
2026-05-09 03:22 41.79047 -71.27530 12815 ft 343 kts 55°
2026-05-09 03:23 41.80225 -71.24767 12505 ft 341 kts 55°
2026-05-09 03:23 41.81393 -71.22024 12232 ft 339 kts 55°
2026-05-09 03:23 41.82565 -71.19268 11948 ft 336 kts 55°
2026-05-09 03:23 41.83702 -71.16590 11662 ft 334 kts 55°
2026-05-09 03:24 41.84838 -71.13913 11430 ft 329 kts 55°
2026-05-09 03:24 41.85961 -71.11273 11224 ft 324 kts 55°
2026-05-09 03:24 41.87079 -71.08679 11079 ft 318 kts 54°
2026-05-09 03:24 41.88190 -71.06118 11031 ft 318 kts 54°
2026-05-09 03:25 41.89295 -71.03575 10848 ft 315 kts 55°
2026-05-09 03:25 41.90395 -71.01033 10520 ft 315 kts 55°
2026-05-09 03:25 41.91490 -70.98494 10204 ft 315 kts 55°
2026-05-09 03:25 41.92577 -70.95968 9916 ft 313 kts 55°
2026-05-09 03:26 41.93671 -70.93426 9641 ft 310 kts 55°
2026-05-09 03:26 41.94741 -70.90937 9383 ft 308 kts 55°
2026-05-09 03:26 41.95809 -70.88457 9122 ft 305 kts 56°
2026-05-09 03:26 41.96857 -70.86016 8867 ft 302 kts 56°
2026-05-09 03:27 41.97899 -70.83584 8598 ft 300 kts 56°
2026-05-09 03:27 41.98931 -70.81177 8346 ft 298 kts 56°
2026-05-09 03:27 41.99957 -70.78781 8107 ft 295 kts 56°
2026-05-09 03:27 42.01052 -70.76457 7992 ft 290 kts 50°
2026-05-09 03:28 42.02305 -70.74343 7988 ft 289 kts 45°
2026-05-09 03:28 42.03638 -70.72331 7988 ft 290 kts 44°
2026-05-09 03:28 42.04988 -70.70330 7987 ft 289 kts 44°
2026-05-09 03:28 42.06339 -70.68324 7987 ft 290 kts 44°
2026-05-09 03:29 42.07685 -70.66316 7989 ft 290 kts 44°
2026-05-09 03:29 42.09029 -70.64301 7992 ft 290 kts 44°
2026-05-09 03:29 42.10440 -70.62345 7984 ft 284 kts 32°
2026-05-09 03:29 42.12135 -70.61224 7935 ft 264 kts
2026-05-09 03:30 42.13921 -70.60789 7756 ft 258 kts
2026-05-09 03:30 42.15677 -70.60455 7595 ft 254 kts
2026-05-09 03:30 42.17419 -70.60126 7428 ft 251 kts
2026-05-09 03:30 42.19126 -70.59789 7269 ft 247 kts
2026-05-09 03:31 42.20811 -70.59444 7108 ft 244 kts
2026-05-09 03:31 42.22493 -70.59093 6942 ft 240 kts
2026-05-09 03:31 42.24130 -70.58749 6773 ft 237 kts
2026-05-09 03:31 42.25745 -70.58405 6649 ft 233 kts
2026-05-09 03:32 42.27334 -70.58067 6504 ft 230 kts
2026-05-09 03:32 42.28901 -70.57731 6358 ft 226 kts
2026-05-09 03:32 42.30445 -70.57400 6186 ft 224 kts
2026-05-09 03:32 42.31983 -70.57072 5991 ft 224 kts
2026-05-09 03:33 42.33517 -70.56744 5796 ft 223 kts
2026-05-09 03:33 42.35051 -70.56412 5591 ft 223 kts
2026-05-09 03:33 42.36595 -70.56057 5379 ft 223 kts
2026-05-09 03:33 42.38116 -70.55709 5199 ft 221 kts
2026-05-09 03:34 42.39578 -70.56039 4961 ft 214 kts 324°
2026-05-09 03:34 42.40509 -70.57537 4768 ft 209 kts 291°
2026-05-09 03:34 42.40743 -70.59454 4560 ft 208 kts 267°
2026-05-09 03:34 42.40629 -70.61382 4384 ft 208 kts 266°
2026-05-09 03:35 42.40515 -70.63341 4190 ft 208 kts 266°
2026-05-09 03:35 42.40485 -70.63889 4135 ft 208 kts 267°
2026-05-09 03:36 42.40389 -70.65882 3995 ft 205 kts 267°
2026-05-09 03:36 42.40304 -70.67822 3992 ft 208 kts 267°
2026-05-09 03:36 42.40224 -70.69772 3987 ft 209 kts 267°
2026-05-09 03:36 42.40145 -70.71729 3972 ft 209 kts 268°
2026-05-09 03:37 42.40112 -70.73711 3854 ft 209 kts 269°
2026-05-09 03:37 42.39990 -70.75686 3464 ft 217 kts 263°
2026-05-09 03:37 42.39743 -70.77699 3130 ft 218 kts 260°
2026-05-09 03:37 42.39434 -70.79673 2822 ft 212 kts 258°
2026-05-09 03:38 42.39099 -70.81570 2554 ft 203 kts 258°
2026-05-09 03:38 42.38770 -70.83376 2320 ft 194 kts 258°
2026-05-09 03:38 42.38457 -70.85101 2083 ft 183 kts 258°
2026-05-09 03:38 42.38161 -70.86752 1848 ft 176 kts 258°
2026-05-09 03:39 42.37888 -70.88282 1606 ft 164 kts 258°
2026-05-09 03:39 42.37627 -70.89740 1391 ft 154 kts 258°
2026-05-09 03:39 42.37383 -70.91111 1179 ft 146 kts 258°
2026-05-09 03:39 42.37152 -70.92411 983 ft 138 kts 258°
2026-05-09 03:40 42.36935 -70.93629 809 ft 131 kts 258°
2026-05-09 03:40 42.36726 -70.94815 630 ft 128 kts 258°
2026-05-09 03:40 42.36522 -70.95986 461 ft 128 kts 257°
2026-05-09 03:40 42.36313 -70.97147 298 ft 128 kts 257°
2026-05-09 03:41 42.36105 -70.98318 117 ft 127 kts 257°
2026-05-09 03:41 42.35901 -70.99452 20 ft 109 kts 257°
2026-05-09 03:41 42.35793 -71.00056 21 ft 31 kts 256°
2026-05-09 03:41 42.35754 -71.00349 23 ft 30 kts 270°
2026-05-09 03:42 42.35771 -71.00555 23 ft 17 kts 279°